N8DMH-13 Weather Reports


time (UTC)temp
F
wind
direction
speed
knots
gust
knots
rain 1hr
in
rain 24hr
in
rain mn
in
humidity
%
barometer
mb
20260901133545 75 0 0.0 0.0 0.00 0.01 0.00 89 1012.8
20260901133355 76 0 0.0 0.9 0.00 0.01 0.00 89 1012.7
20260901133104 75 0 0.0 0.0 0.00 0.01 0.00 89 1012.8
20260901132826 75 0 0.0 0.0 0.00 0.01 0.00 89 1012.8
20260901132254 74 0 0.0 0.0 0.00 0.01 0.00 90 1013.0
20260901131754 74 0 0.0 0.0 0.00 0.01 0.00 91 1013.0
20260901131225 74 0 0.0 0.9 0.00 0.01 0.00 91 1013.0
20260901131004 73 0 0.0 0.9 0.00 0.01 0.00 92 1013.0
20260901130752 73 0 0.0 0.9 0.00 0.01 0.00 92 1013.0
20260901130654 73 0 0.0 0.9 0.00 0.01 0.00 92 1013.0
20260901130511 73 0 0.0 0.9 0.00 0.01 0.00 93 1012.9
20260901130232 73 0 0.0 0.9 0.00 0.01 0.00 93 1012.9
20260901130154 73 0 0.0 0.9 0.00 0.01 0.00 93 1012.9
20260901125855 72 0 0.0 0.9 0.00 0.03 0.00 93 1012.9
20260901125654 72 0 0.0 0.9 0.00 0.03 0.00 93 1012.9
20260901125417 72 0 0.0 0.0 0.00 0.08 0.00 94 1012.8
20260901125154 72 0 0.0 0.0 0.00 0.08 0.00 94 1012.8
20260901124624 72 0 0.0 0.0 0.00 0.14 0.00 94 1012.8
20260901124436 72 0 0.0 0.0 0.00 0.23 0.00 95 1012.7
20260901124126 72 0 0.0 0.0 0.00 0.23 0.00 95 1012.7
20260901124053 72 0 0.0 0.0 0.00 0.23 0.00 95 1012.7
20260901123837 71 0 0.0 0.0 0.00 0.41 0.00 95 1012.7
20260901123553 71 0 0.0 0.0 0.00 0.41 0.00 95 1012.7
20260901123027 71 0 0.0 0.0 0.00 0.55 0.00 95 1012.7
20260901122749 71 0 0.0 0.0 0.00 0.62 0.00 95 1012.6
20260901122458 71 0 0.0 0.0 0.00 0.62 0.00 95 1012.6
20260901121953 70 0 0.0 0.0 0.00 0.65 0.00 95 1012.7
20260901121423 70 0 0.0 0.0 0.00 0.69 0.00 95 1012.8
20260901121211 70 0 0.0 0.0 0.00 0.70 0.00 95 1012.7
20260901120942 70 0 0.0 0.0 0.00 0.70 0.00 95 1012.7
20260901120913 70 0 0.0 0.0 0.00 0.70 0.00 95 1012.7
20260901120854 70 0 0.0 0.0 0.00 0.70 0.00 95 1012.7
20260901120610 70 0 0.0 0.0 0.00 0.72 0.00 95 1012.6
20260901120353 70 0 0.0 0.0 0.00 0.72 0.00 95 1012.6
20260901120121 70 0 0.0 0.0 0.00 0.73 0.00 95 1012.6
20260901115823 70 0 0.0 0.0 0.00 0.73 0.00 95 1012.6
20260901115605 69 0 0.0 0.0 0.00 0.73 0.00 95 1012.6
20260901115252 69 0 0.0 0.0 0.00 0.73 0.00 95 1012.6
20260901115025 69 0 0.0 0.0 0.00 0.73 0.00 95 1012.5
20260901114754 69 0 0.0 0.0 0.00 0.73 0.00 95 1012.5
20260901114222 69 0 0.0 0.0 0.00 0.73 0.00 95 1012.3
20260901113847 69 0 0.0 0.0 0.00 0.74 0.00 95 1012.2
20260901113653 69 0 0.0 0.0 0.00 0.74 0.00 95 1012.2
20260901113418 69 0 0.0 0.0 0.00 0.74 0.00 95 1011.9
20260901113152 69 0 0.0 0.0 0.00 0.74 0.00 95 1012.2
20260901113034 69 0 0.0 0.0 0.00 0.74 0.00 95 1011.9
20260901112850 69 0 0.0 0.0 0.00 0.74 0.00 95 1011.9
20260901112657 69 0 0.0 0.0 0.00 0.74 0.00 95 1011.9
20260901112622 69 0 0.0 0.0 0.00 0.74 0.00 95 1011.9
20260901112053 69 0 0.0 0.0 0.00 0.74 0.00 95 1011.9
20260901111807 69 0 0.0 0.0 0.00 0.74 0.00 95 1012.0
20260901111552 69 0 0.0 0.0 0.00 0.74 0.00 95 1012.0
20260901111022 69 0 0.0 0.0 0.00 0.74 0.00 94 1011.9
20260901105921 69 0 0.0 0.0 0.00 0.74 0.00 94 1012.0
20260901105351 69 0 0.0 0.0 0.00 0.74 0.00 94 1011.9
20260901104856 69 0 0.0 0.0 0.00 0.74 0.00 94
20260901104851 69 0 0.0 0.0 0.00 0.74 0.00 94 1011.8
20260901104355 69 0 0.0 0.0 0.00 0.74 0.00 94 1011.9
20260901104321 69 0 0.0 0.0 0.00 0.74 0.00 94 1011.9
20260901103933 70 0 0.0 0.0 0.00 0.74 0.00 94 1011.8
20260901103823 70 0 0.0 0.0 0.00 0.74 0.00 94 1011.8
20260901103523 70 0 0.0 0.0 0.00 0.74 0.00 94 1011.8
20260901103321 70 0 0.0 0.0 0.00 0.74 0.00 94 1011.8
20260901102944 70 0 0.0 0.0 0.00 0.74 0.00 94 1011.8
20260901102821 70 0 0.0 0.0 0.00 0.74 0.00 94 1011.8
20260901102252 70 0 0.0 0.0 0.00 0.74 0.00 94 1011.7
20260901101753 70 0 0.0 0.0 0.00 0.74 0.00 94 1011.5
20260901101335 70 0 0.0 0.0 0.00 0.74 0.00 94 1011.5
20260901101224 70 0 0.0 0.0 0.00 0.74 0.00 94 1011.5
20260901100807 70 0 0.0 0.0 0.00 0.74 0.00 94 1011.5
20260901100652 70 0 0.0 0.0 0.00 0.74 0.00 94 1011.5
20260901100151 70 0 0.0 0.0 0.00 0.74 0.00 94 1011.6
20260901095620 70 0 0.0 0.0 0.00 0.74 0.00 94 1011.6
20260901095051 70 0 0.0 0.0 0.00 0.74 0.00 94 1011.5
20260901094800 70 0 0.0 0.0 0.00 0.74 0.00 93 1011.5
20260901094624 70 0 0.0 0.0 0.00 0.74 0.00 93 1011.5
20260901094550 70 0 0.0 0.0 0.00 0.74 0.00 93 1011.5
20260901094049 70 0 0.0 0.0 0.00 0.74 0.00 94 1011.5
20260901093802 70 0 0.0 0.0 0.00 0.74 0.00 93 1011.4
20260901093520 70 0 0.0 0.0 0.00 0.74 0.00 93 1011.4
20260901093021 70 0 0.0 0.0 0.00 0.74 0.00 93 1011.3
20260901092729 70 0 0.0 0.0 0.00 0.74 0.00 93 1011.3
20260901092524 70 0 0.0 0.0 0.00 0.74 0.00 93 1011.3
20260901091646 71 0 0.0 0.0 0.00 0.74 0.00 93 1011.2
20260901091452 71 0 0.0 0.0 0.00 0.74 0.00 93 1011.2
20260901090949 71 0 0.0 0.0 0.00 0.74 0.00 93 1011.3
20260901090419 71 0 0.0 0.0 0.00 0.74 0.00 92 1011.2
20260901085919 71 0 0.0 0.0 0.00 0.74 0.00 92 1011.2
20260901085635 71 0 0.0 0.0 0.00 0.74 0.00 92 1011.2
20260901085420 71 0 0.0 0.0 0.00 0.74 0.00 92 1011.2
20260901085105 71 0 0.0 0.0 0.00 0.74 0.00 93 1011.2
20260901085014 71 0 0.0 0.0 0.00 0.74 0.00 93 1011.2
20260901084849 71 0 0.0 0.0 0.00 0.74 0.00 93 1011.2
20260901084318 71 0 0.0 0.0 0.00 0.74 0.00 92 1011.2
20260901083818 72 0 0.0 0.0 0.00 0.74 0.00 92 1011.1
20260901083249 72 0 0.0 0.0 0.00 0.74 0.00 92 1011.1
20260901083019 72 0 0.0 0.0 0.00 0.74 0.00 92 1011.2
20260901082927 72 0 0.0 0.0 0.00 0.74 0.00 92 1011.2
20260901082751 72 0 0.0 0.0 0.00 0.74 0.00 92 1011.2
20260901082219 72 0 0.0 0.0 0.00 0.74 0.00 91 1011.1
20260901081648 72 0 0.0 0.0 0.00 0.74 0.00 91 1011.0
20260901081414 72 0 0.0 0.0 0.00 0.74 0.00 91 1011.1
20260901081147 72 0 0.0 0.0 0.00 0.74 0.00 91 1011.1
20260901080723 72 0 0.0 0.0 0.00 0.74 0.00 92 1011.1
20260901080648 72 0 0.0 0.0 0.00 0.74 0.00 92 1011.1
20260901080237 72 0 0.0 0.9 0.00 0.74 0.00 92 1011.0
20260901080117 72 0 0.0 0.9 0.00 0.74 0.00 92 1011.0
20260901075617 72 0 0.0 0.9 0.00 0.74 0.00 92 1011.0
20260901075117 72 0 0.0 0.9 0.00 0.74 0.00 92 1010.9
20260901074549 72 0 0.0 0.0 0.00 0.74 0.00 91 1011.1
20260901074047 72 0 0.0 0.0 0.00 0.74 0.00 91 1010.9
20260901073600 72 0 0.0 0.0 0.00 0.74 0.00 91 1011.1
20260901073518 72 0 0.0 0.0 0.00 0.74 0.00 91 1011.1
20260901072947 72 0 0.0 0.0 0.00 0.74 0.00 91 1011.2
20260901072649 72 0 0.0 0.0 0.00 0.74 0.00 90 1011.2
20260901072449 72 0 0.0 0.0 0.00 0.74 0.00 90 1011.2
20260901072249 72 0 0.0 0.0 0.00 0.74 0.00 90 1011.3
20260901071917 72 0 0.0 0.0 0.00 0.74 0.00 90 1011.3
20260901071603 72 0 0.0 0.0 0.00 0.74 0.00 90 1011.3
20260901071348 72 0 0.0 0.0 0.00 0.74 0.00 90 1011.3
20260901070955 73 0 0.0 0.0 0.00 0.74 0.00 90 1011.4
20260901070846 73 0 0.0 0.0 0.00 0.74 0.00 90 1011.4
20260901070446 73 0 0.0 0.0 0.00 0.74 0.00 90 1011.4
20260901070316 73 0 0.0 0.0 0.00 0.74 0.00 90 1011.4
20260901065816 73 0 0.0 0.0 0.00 0.74 0.00 90 1011.3
20260901065316 73 0 0.0 0.0 0.00 0.74 0.00 89 1011.3
20260901064747 73 0 0.0 0.0 0.00 0.74 0.00 90 1011.3
20260901064415 73 0 0.0 0.0 0.00 0.74 0.00 89 1011.3
20260901064248 73 0 0.0 0.0 0.00 0.74 0.00 89 1011.3
20260901063716 73 0 0.0 0.0 0.00 0.74 0.00 90 1011.4
20260901063216 73 0 0.0 0.0 0.00 0.74 0.00 89 1011.4
20260901062645 73 0 0.0 0.0 0.00 0.74 0.00 89 1011.2
20260901062243 73 0 0.0 0.0 0.00 0.74 0.00 89 1011.2
20260901062115 73 0 0.0 0.0 0.00 0.74 0.00 89 1011.2
20260901061545 73 0 0.0 0.0 0.00 0.74 0.00 89 1011.3
20260901061145 73 0 0.0 0.0 0.00 0.74 0.00 90 1011.3
20260901061045 73 0 0.0 0.0 0.00 0.74 0.00 90 1011.3
20260901060545 73 0 0.0 0.0 0.00 0.74 0.00 90 1011.3
20260901060015 73 0 0.0 0.0 0.00 0.74 0.00 89 1011.3
20260901055515 72 0 0.0 0.0 0.00 0.74 0.00 89 1011.3
20260901054944 72 0 0.0 0.0 0.00 0.74 0.00 89 1011.4
20260901054447 72 0 0.0 0.0 0.00 0.74 0.00 89 1011.5
20260901053914 72 0 0.0 0.0 0.00 0.74 0.00 89 1011.5
20260901053514 72 0 0.0 0.0 0.00 0.74 0.00 89 1011.4
20260901053345 72 0 0.0 0.0 0.00 0.74 0.00 89 1011.4
20260901052844 72 0 0.0 0.0 0.00 0.74 0.00 89 1011.4
20260901052314 72 0 0.0 0.0 0.00 0.74 0.00 89 1011.3
20260901051744 72 0 0.0 0.0 0.00 0.74 0.00 89 1011.3
20260901051245 72 0 0.0 0.0 0.00 0.74 0.00 89 1011.3
20260901050752 72 0 0.0 0.0 0.00 0.74 0.00 88 1011.1
20260901050744 72 0 0.0 0.0 0.00 0.74 0.00 88 1011.1
20260901050213 73 0 0.0 0.0 0.00 0.74 0.00 88 1011.2
20260901045713 73 0 0.0 0.0 0.00 0.74 0.00 88 1011.1
20260901045213 73 0 0.0 0.0 0.00 0.74 0.00 88 1011.4
20260901044643 73 0 0.0 0.0 0.00 0.74 0.00 87 1011.4
20260901044143 73 0 0.0 0.0 0.00 0.74 0.00 87 1011.4
20260901043643 73 0 0.0 0.0 0.00 0.74 0.00 87 1011.4
20260901043233 73 0 0.0 0.0 0.00 0.74 0.00 87 1011.4
20260901043113 73 0 0.0 0.0 0.00 0.74 0.00 87 1011.4
20260901042909 73 0 0.0 0.9 0.00 0.74 0.00 87 1011.4
20260901042613 73 0 0.0 0.9 0.00 0.74 0.00 87 1011.4
20260901042113 73 0 0.0 0.9 0.00 0.74 0.00 87 1011.3
20260901041800 74 0 0.0 0.0 0.00 0.74 0.00 87 1011.4
20260901041646 74 0 0.0 0.0 0.00 0.74 0.00 87 1011.4
20260901041542 74 0 0.0 0.0 0.00 0.74 0.00 87 1011.4
20260901041308 74 0 0.0 0.0 0.00 0.74 0.00 87 1011.4
20260901041042 74 0 0.0 0.0 0.00 0.74 0.00 87 1011.4
20260901040512 74 0 0.0 0.9 0.00 0.74 0.00 87 1011.4
20260901035946 74 0 0.0 0.0 0.00 0.74 0.74 87 1011.3
20260901035412 74 0 0.0 0.0 0.00 0.74 0.74 87 1011.3
20260901034842 74 0 0.0 0.0 0.00 0.74 0.74 86 1011.3
20260901034342 74 0 0.0 0.0 0.00 0.74 0.74 87 1011.5
20260901033842 74 0 0.0 0.0 0.00 0.74 0.74 86 1011.3
20260901033311 74 0 0.0 0.0 0.00 0.74 0.74 86 1011.4
20260901032811 74 0 0.0 0.9 0.00 0.74 0.74 86 1011.3
20260901032311 74 0 0.0 0.9 0.00 0.74 0.74 86 1011.2
20260901031744 74 0 0.0 0.9 0.00 0.74 0.74 86 1011.3
20260901031242 74 0 0.0 0.0 0.00 0.74 0.74 86 1011.2
20260901030827 74 0 0.0 0.0 0.00 0.74 0.74 86 1011.3
20260901030711 74 0 0.0 0.0 0.00 0.74 0.74 86 1011.3
20260901030141 74 0 0.0 0.0 0.00 0.74 0.74 87 1011.4
20260901025640 74 0 0.0 0.0 0.00 0.74 0.74 87 1011.2
20260901024242 74 0 0.0 0.0 0.00 0.74 0.74 84 1011.4
20260901024040 74 0 0.0 0.0 0.00 0.74 0.74 84 1011.4
20260901023659 75 0 0.0 0.0 0.00 0.74 0.74 83 1011.5
20260901023540 75 0 0.0 0.0 0.00 0.74 0.74 83 1011.5
20260901022510 75 0 0.0 0.0 0.00 0.74 0.74 83 1011.2
20260901022010 75 0 0.0 0.0 0.00 0.74 0.74 82 1011.3
20260901021440 76 0 0.0 0.0 0.00 0.74 0.74 82 1011.3
20260901020940 76 0 0.0 0.0 0.00 0.74 0.74 82 1011.2
20260901020440 76 0 0.0 0.0 0.00 0.74 0.74 81 1011.2
20260901015910 76 0 0.0 0.0 0.00 0.74 0.74 81 1011.3
20260901015409 77 0 0.0 0.0 0.00 0.74 0.74 80 1011.2
20260901014909 77 0 0.0 0.0 0.00 0.74 0.74 80 1011.0
20260901014339 77 0 0.0 0.0 0.00 0.74 0.74 80 1010.9
20260901013839 78 0 0.0 0.0 0.00 0.74 0.74 79 1010.9
20260901013339 78 0 0.0 0.9 0.00 0.74 0.74 79 1011.1
20260901012839 78 0 0.0 0.0 0.00 0.74 0.74 79 1011.1
20260901012310 78 0 0.0 0.0 0.00 0.74 0.74 79 1011.0
20260901011809 78 0 0.0 0.0 0.00 0.74 0.74 78 1010.8
20260901011309 78 0 0.0 0.0 0.00 0.74 0.74 78 1010.8
20260901010240 78 0 0.0 0.0 0.00 0.74 0.74 79 1010.5
20260901005709 78 0 0.0 0.0 0.00 0.74 0.74 78 1010.3
20260901005208 78 0 0.0 0.0 0.00 0.74 0.74 78 1010.4
20260901004708 78 0 0.0 0.0 0.00 0.74 0.74 78 1010.3
20260901004138 79 0 0.0 0.0 0.00 0.74 0.74 77 1010.3
20260901003638 79 0 0.0 0.0 0.00 0.74 0.74 77 1010.2
20260901003138 79 0 0.0 0.0 0.00 0.74 0.74 77 1010.2
20260901002608 79 0 0.0 0.0 0.00 0.74 0.74 76 1010.3
20260901002107 80 0 0.0 0.0 0.00 0.74 0.74 75 1010.4
20260901001537 80 0 0.0 0.0 0.00 0.74 0.74 75 1010.3
20260901001008 80 0 0.0 0.0 0.00 0.74 0.74 74 1010.4
20260901000508 81 0 0.0 0.0 0.00 0.74 0.74 74 1010.4
20260901000007 81 0 0.0 0.0 0.00 0.74 0.74 73 1010.2
20260831235437 81 0 0.0 1.7 0.00 0.74 0.74 73 1010.2
20260831234938 82 0 0.0 0.9 0.00 0.74 0.74 72 1010.3
20260831234438 82 0 0.0 0.9 0.00 0.74 0.74 72 1010.2
20260831233907 82 248 0.9 3.5 0.00 0.74 0.74 72 1010.2
20260831233407 82 248 0.9 2.6 0.00 0.74 0.74 72 1010.2
20260831233148 82 248 0.9 3.5 0.00 0.74 0.74 71 1010.2
20260831232837 82 248 0.9 3.5 0.00 0.74 0.74 71 1010.2
20260831232337 83 270 0.9 3.5 0.00 0.74 0.74 71 1010.3
20260831232130 83 248 0.9 5.2 0.00 0.74 0.74 69 1010.2
20260831231836 83 248 0.9 5.2 0.00 0.74 0.74 69 1010.2
20260831231307 84 270 0.9 4.3 0.00 0.74 0.74 69 1010.2
20260831230807 85 248 1.7 3.5 0.00 0.74 0.74 68 1010.0
20260831230532 85 270 0.9 4.3 0.00 0.74 0.74 67 1009.9
20260831230236 85 270 0.9 4.3 0.00 0.74 0.74 67 1009.9
20260831225706 86 270 0.9 2.6 0.00 0.74 0.74 67 1009.9
20260831225206 86 248 0.9 2.6 0.00 0.74 0.74 66 1009.9
20260831224636 86 0 0.0 1.7 0.00 0.75 0.74 67 1009.8
20260831224135 86 292 0.9 2.6 0.00 0.75 0.74 67 1009.8
20260831223635 86 248 0.9 3.5 0.00 0.75 0.74 66 1009.7
20260831223105 86 270 0.9 2.6 0.00 0.75 0.74 67 1009.8
20260831222605 86 270 0.9 3.5 0.00 0.75 0.74 65 1009.6
20260831222106 87 0 0.0 1.7 0.00 0.75 0.74 65 1009.5
20260831221245 86 225 0.9 6.1 0.00 0.76 0.74 67 1009.5
20260831221035 86 225 0.9 6.1 0.00 0.76 0.74 67 1009.5
20260831220820 86 248 0.9 1.7 0.00 0.77 0.74 68 1009.6
20260831220507 86 248 0.9 1.7 0.00 0.77 0.74 68 1009.6
20260831220005 86 248 1.7 4.3 0.00 0.77 0.74 68 1009.7
20260831215506 85 248 2.6 7.0 0.00 0.77 0.74 68 1009.7
20260831214935 85 248 2.6 7.0 0.00 0.77 0.74 68 1009.6
20260831214434 85 248 2.6 6.1 0.00 0.77 0.74 68 1009.6
20260831213904 85 248 2.6 7.0 0.00 0.77 0.74 68 1009.5
20260831213404 85 270 2.6 7.0 0.00 0.77 0.74 67 1009.6
20260831212835 85 248 2.6 6.1 0.00 0.77 0.74 68 1009.7
20260831212306 84 248 3.5 6.1 0.00 0.77 0.74 68 1009.8
20260831211803 85 248 2.6 7.0 0.00 0.77 0.74 67 1009.7
20260831211303 86 248 1.7 6.1 0.00 0.77 0.74 67 1009.5
20260831210803 86 270 1.7 7.0 0.00 0.77 0.74 66 1009.6
20260831210234 86 248 1.7 7.8 0.00 0.77 0.74 66 1009.6
20260831205703 85 248 0.9 3.5 0.00 0.77 0.74 67 1009.6
20260831205203 85 270 0.9 3.5 0.00 0.77 0.74 67 1009.6
20260831204633 85 248 0.9 3.5 0.00 0.77 0.74 67 1009.4
20260831204104 85 248 1.7 5.2 0.00 0.77 0.74 66 1009.6
20260831203924 85 270 0.9 3.5 0.00 0.77 0.74 65 1009.4
20260831203603 85 270 0.9 3.5 0.00 0.77 0.74 65 1009.4
20260831203242 85 248 0.9 2.6 0.00 0.77 0.74 65 1009.6
20260831203034 85 248 0.9 2.6 0.00 0.77 0.74 65 1009.6
20260831202654 86 270 1.7 6.1 0.00 0.77 0.74 65 1009.6
20260831202504 86 270 1.7 6.1 0.00 0.77 0.74 65 1009.6
20260831202003 85 270 2.6 7.8 0.00 0.77 0.74 64 1009.6
20260831201432 86 270 1.7 6.1 0.00 0.77 0.74 63 1009.6
20260831200902 86 292 0.9 4.3 0.00 0.77 0.74 64 1009.7
20260831200402 86 270 1.7 4.3 0.00 0.77 0.74 63 1009.7
20260831195832 86 270 2.6 8.7 0.00 0.77 0.74 62 1009.6
20260831195302 86 270 2.6 10.4 0.00 0.77 0.74 63 1009.6
20260831194802 87 270 1.7 5.2 0.00 0.77 0.74 63 1009.5
20260831194232 87 292 3.5 7.8 0.00 0.77 0.74 63 1009.4
20260831193701 87 270 1.7 7.0 0.00 0.77 0.74 65 1009.6
20260831193201 87 248 2.6 7.8 0.00 0.77 0.74 65 1009.6
20260831192632 87 270 1.7 7.0 0.00 0.77 0.74 68 1009.8
20260831191631 86 225 1.7 6.1 0.00 0.77 0.74 69 1009.7
20260831191102 86 248 2.6 5.2 0.00 0.77 0.74 68 1009.6
20260831190601 86 292 0.9 5.2 0.00 0.77 0.74 70 1009.7
20260831190031 85 292 1.7 6.1 0.00 0.77 0.74 70 1009.9
20260831185530 85 68 0.9 3.5 0.00 0.77 0.74 70 1009.9
20260831185031 85 248 1.7 5.2 0.00 0.77 0.74 69 1010.0
20260831184530 84 292 0.9 2.6 0.00 0.77 0.74 70 1010.1
20260831184033 84 292 1.7 6.1 0.00 0.77 0.74 69 1010.0
20260831183503 84 270 1.7 7.0 0.00 0.77 0.74 71 1010.1
20260831183000 84 225 0.9 5.2 0.00 0.77 0.74 71 1010.1
20260831182431 84 270 1.7 6.1 0.00 0.77 0.74 71 1010.3
20260831181930 84 292 0.9 4.3 0.00 0.77 0.74 72 1010.3
20260831181654 83 270 1.7 6.1 0.00 0.77 0.74 72 1010.4
20260831181430 83 270 1.7 6.1 0.00 0.77 0.74 72 1010.4
20260831180929 83 270 1.7 5.2 0.00 0.77 0.74 73 1010.4
20260831180400 83 248 0.9 3.5 0.00 0.77 0.74 73 1010.4
20260831175829 82 292 1.7 5.2 0.00 0.77 0.74 75 1010.5
20260831174800 81 315 0.9 4.3 0.00 0.77 0.74 76 1010.5
20260831174259 81 292 0.9 4.3 0.00 0.77 0.74 76 1010.5
20260831173729 81 90 0.9 4.3 0.00 0.77 0.74 77 1010.7
20260831173229 80 68 0.9 2.6 0.00 0.77 0.74 77 1010.9
20260831172659 80 292 0.9 3.5 0.00 0.77 0.74 77 1010.9
20260831172159 80 45 0.9 4.3 0.00 0.77 0.74 79 1011.0
20260831171927 79 0 0.9 3.5 0.00 0.77 0.74 78 1010.9
20260831171629 79 0 0.9 3.5 0.00 0.77 0.74 78 1010.9
20260831171058 79 112 0.9 2.6 0.00 0.77 0.74 78 1010.9
20260831170559 79 68 0.9 4.3 0.00 0.77 0.74 80 1011.0
20260831170029 78 135 1.7 8.7 0.00 0.77 0.74 82 1011.1
20260831165500 78 90 0.9 4.3 0.00 0.77 0.74 82 1011.2
20260831164959 78 68 1.7 6.1 0.00 0.77 0.74 83 1011.1
20260831164500 77 68 1.7 7.8 0.00 0.77 0.74 82 1011.2
20260831163928 77 135 0.9 6.1 0.00 0.77 0.74 83 1011.5
20260831163359 77 135 1.7 8.7 0.00 0.77 0.74 83 1011.6
20260831162858 77 135 0.9 5.2 0.00 0.77 0.74 85 1011.6
20260831162400 77 135 0.9 5.2 0.00 0.77 0.74 83 1011.5
20260831161857 76 90 0.9 4.3 0.00 0.77 0.74 86 1011.6
20260831161329 76 90 2.6 7.8 0.00 0.77 0.74 86 1011.8
20260831160757 76 112 1.7 6.1 0.00 0.77 0.74 87 1011.9
20260831160258 76 112 0.9 5.2 0.00 0.77 0.74 89 1012.1
20260831155728 75 90 0.9 6.1 0.00 0.77 0.74 89 1012.3
20260831155456 75 112 0.9 4.3 0.00 0.77 0.74 90 1012.5
20260831155227 75 112 0.9 4.3 0.00 0.77 0.74 90 1012.5
20260831154658 74 135 0.9 3.5 0.00 0.77 0.74 91 1012.6
20260831154157 74 68 1.7 6.1 0.00 0.77 0.74 91 1012.8
20260831153656 74 135 0.9 4.3 0.01 0.77 0.74 93 1012.8
20260831153313 73 0 0.0 1.7 0.01 0.77 0.74 93 1012.8
20260831153126 73 0 0.0 1.7 0.01 0.77 0.74 93 1012.8
20260831152626 73 90 1.7 5.2 0.01 0.77 0.74 93 1012.9
20260831152056 72 112 0.9 3.5 0.01 0.77 0.74 95 1013.0
20260831151527 72 112 1.7 3.5 0.01 0.77 0.74 95 1012.6
20260831151226 71 112 0.9 2.6 0.01 0.77 0.74 95 1012.8
20260831151026 71 112 0.9 2.6 0.01 0.77 0.74 95 1012.8
20260831150526 71 112 0.9 1.7 0.01 0.77 0.74 95 1012.9
20260831150025 71 68 0.9 2.6 0.01 0.77 0.74 95 1012.9
20260831145758 71 0 0.0 2.6 0.01 0.77 0.74 95 1013.1
20260831145459 71 0 0.0 2.6 0.01 0.77 0.74 95 1013.1
20260831144925 71 0 0.0 0.9 0.01 0.77 0.74 95 1013.1
20260831144426 71 0 0.0 0.0 0.01 0.77 0.74 95 1013.3
20260831144130 71 0 0.0 0.0 0.01 0.77 0.74 95 1013.3
20260831143926 71 0 0.0 0.0 0.01 0.77 0.74 95 1013.3
20260831143355 71 0 0.0 0.9 0.00 0.76 0.73 95 1013.2
20260831142856 71 0 0.0 0.0 0.00 0.76 0.73 95 1013.2
20260831142325 71 0 0.0 0.9 0.00 0.76 0.73 95 1013.2
20260831141826 71 0 0.0 0.9 0.00 0.76 0.73 95 1013.0
20260831141324 71 0 0.0 0.9 0.00 0.76 0.73 95 1013.2
20260831140826 71 0 0.0 0.9 0.00 0.76 0.73 95 1013.3
20260831140529 71 0 0.0 0.0 0.00 0.76 0.73 95 1013.3
20260831140255 71 0 0.0 0.0 0.00 0.76 0.73 95 1013.3
20260831135755 71 0 0.0 0.9 0.02 0.76 0.73 95 1013.3
20260831135559 71 0 0.0 0.0 0.07 0.76 0.73 96 1013.4
20260831135227 71 0 0.0 0.0 0.07 0.76 0.73 96 1013.4
20260831135005 70 0 0.0 0.9 0.13 0.76 0.73 96 1013.3
20260831134724 70 0 0.0 0.9 0.13 0.76 0.73 96 1013.3
20260831134439 70 0 0.0 0.9 0.22 0.76 0.73 96 1013.3
20260831134224 70 0 0.0 0.9 0.22 0.76 0.73 96 1013.3